Simultaneous Nadir Overpasses (SNOs) Predictions

Prediction of SNOs between GOES-16 and FY3D Satellite Orbit:

Table of predicted SNOs for the next 14.0 days since TLE Epoch: 8/26/2022
Index Date Time (GOES-16) GOES-16 Lat,Lon FY3D Lat,Lon Distance(km) Time Diff (sec)
1 08/28/2022 07:11:01 0.02, -75.21 0.93, -79.22 457.75 80
2 08/29/2022 06:49:56 0.02, -75.21 -0.05, -74.76 51.35 80
3 08/31/2022 18:53:58 -0.02, -75.24 -0.14, -75.71 53.99 80
4 09/01/2022 18:38:12 -0.03, -75.25 0.85, -71.25 455.39 80
5 09/03/2022 07:00:30 0.02, -75.26 0.34, -76.62 156.19 80
6 09/04/2022 06:39:25 0.02, -75.26 -0.70, -72.17 352.99 80
7 09/05/2022 19:01:51 -0.00, -75.28 -0.51, -77.58 261.75 80
8 09/06/2022 18:46:06 0.00, -75.29 0.48, -73.12 247.66 80
9 09/08/2022 07:08:23 -0.01, -75.31 0.72, -78.49 363.12 80
10 09/09/2022 06:47:19 -0.00, -75.32 -0.32, -74.04 146.96 80
